BEESAT-4 (41619 NORAD) Tracking and Keplerian Element Data

This shows tracking and keplerian element data for the satellite.

Feedback or suggestion? Click here.




ElementValue
Catalog41619
NameBEESAT-4
Epoch Orbit38792
Epoch Day238.66157509
Epoch Year2023
RAAN289.6989
Inclination97.144
Eccentricity0.0003127
Argument of Perigee217.3184
Mean Anonmoly142.7869
Mean Motion15.81483125
Decay Rate0.002908
L11 41619U 16040W 23238.66157509 .00290800 00000+0 14247-2 0 9997
L22 41619 97.1440 289.6989 0003127 217.3184 142.7869 15.81483125387922



Live tracking and technical data element details for BEESAT-4 (NORAD 41619). BEESAT-4 can be tracked NOW for your location showing map with azimuth and elevation plus other details from your city location.







IsCatalogInMostPopularTable: catalog: 41619, numindb: 689
Update: records affected: 1



GetName: 41619 BEESAT-4

Hit Count: updated at: Sat, 17 May 2025 05:52:07 GMT